Theta_e
306 309 312 317 318 320 320 320 319 320 320 318 318 316 316 318 320 320 319 323 329 331 330 328 335 344 349 350 350 350 349 351 353 357 356 354 354 352 352 348 345 342 338 331 328 329 330 331 330 331 335 339 340 341 341 341 341 341 341 340 339 337 336 336 338 338 336 336 337 338 339 339 336 333 330 329 329 328 328 332 337 339 339 341 342 341 340 339 338 340 339 338 339 339 339 336 336
309 316 319 320 320 318 320 320 318 318 317 316 318 317 318 319 320 318 323 328 333 333 330 333 339 345 346 347 347 349 350 348 347 353 354 352 353 351 350 347 344 342 336 329 328 329 330 330 329 329 332 335 335 335 337 339 340 342 342 340 341 340 338 338 340 339 337 337 338 339 340 339 335 332 331 329 328 327 327 331 334 336 340 342 341 341 340 339 338 338 338 339 338 338 339 338 337
310 317 319 320 321 317 318 319 319 317 314 315 315 319 320 320 318 322 328 328 332 330 329 339 345 345 345 348 347 350 352 348 346 350 352 354 353 351 349 346 343 341 334 328 327 329 330 329 328 328 329 330 330 330 332 335 338 341 342 342 342 341 340 340 340 339 337 339 340 340 340 338 334 332 332 331 328 327 328 331 334 337 341 342 342 340 339 338 338 338 338 339 338 337 338 338 338
309 313 316 317 318 315 317 320 323 318 314 313 312 317 320 322 325 329 330 328 329 328 330 341 348 345 346 348 345 348 349 346 347 348 351 353 352 351 349 345 342 338 332 328 328 329 329 328 328 327 327 328 327 328 329 333 337 340 342 342 342 341 340 340 340 339 339 341 341 340 341 338 334 332 331 331 330 331 332 333 335 338 341 342 341 340 338 338 338 338 339 339 338 336 336 337 337
307 311 314 314 316 318 318 320 321 317 315 315 312 315 321 325 328 331 332 330 329 328 329 340 350 347 348 349 347 350 350 346 346 347 351 353 352 350 347 345 340 337 333 329 328 329 328 327 327 327 328 328 328 328 330 336 339 340 341 342 341 341 341 340 340 340 340 341 341 340 341 340 337 335 333 332 333 335 336 337 338 338 340 340 340 338 338 338 338 338 339 339 338 335 334 334 334
310 312 313 314 318 318 319 321 320 317 316 318 315 316 321 326 328 327 330 329 328 329 327 342 349 348 351 350 348 350 349 347 346 349 352 352 352 349 346 343 339 337 334 329 328 329 328 328 327 328 328 328 328 328 332 338 340 340 342 341 340 341 340 340 340 341 341 340 341 342 341 341 340 339 337 336 337 338 338 339 339 339 340 340 340 338 337 337 337 338 339 338 337 334 332 332 332
314 314 315 316 317 316 318 320 318 318 318 318 317 316 322 327 327 324 325 324 328 328 329 345 346 350 353 349 351 349 346 347 346 349 352 353 351 349 346 343 341 339 336 330 328 328 327 327 327 328 328 328 328 328 335 339 340 340 341 339 339 340 340 340 340 340 341 341 342 342 342 341 340 339 337 336 336 337 337 337 336 336 339 339 338 337 336 337 337 338 338 337 335 333 332 331 332
314 315 317 318 318 316 317 317 315 317 316 318 317 318 324 326 325 322 323 320 327 327 329 343 345 353 354 351 355 350 344 347 346 349 352 350 350 349 347 346 343 341 338 332 329 328 327 327 328 328 328 329 328 331 337 339 339 339 338 338 338 339 339 339 339 340 341 341 342 341 341 340 338 335 334 335 335 335 335 333 331 332 335 336 336 336 336 337 337 336 336 335 334 333 332 331 330
313 315 316 317 320 318 316 315 314 316 315 317 316 318 324 323 323 322 321 320 323 325 332 342 346 355 355 353 355 350 345 344 346 347 348 347 346 347 347 346 344 343 339 332 329 328 327 327 327 328 328 329 328 332 338 339 338 338 336 337 338 338 338 338 340 340 340 341 340 339 339 337 335 333 333 335 336 335 333 332 330 329 331 332 333 335 336 337 336 336 336 335 334 333 331 330 328
314 314 316 318 320 318 315 315 315 316 317 317 318 318 321 322 322 321 321 321 319 327 340 345 348 353 354 354 355 351 345 344 345 345 344 345 345 345 346 346 346 344 340 332 329 328 327 328 327 328 328 329 329 332 337 338 339 339 337 338 338 338 339 339 339 339 338 338 337 337 336 335 334 334 336 336 337 336 335 334 331 329 328 329 333 333 335 336 336 336 335 334 332 330 330 328 328
316 314 315 316 316 315 314 315 315 316 317 317 318 318 321 322 321 321 320 320 318 327 340 348 350 351 353 353 352 347 342 343 345 343 342 343 344 345 346 345 345 345 339 333 330 328 327 327 327 328 328 329 330 330 334 337 338 338 338 338 338 338 338 338 338 337 336 334 334 334 334 335 335 336 337 338 337 337 336 335 333 330 327 327 331 332 334 335 336 335 334 333 329 328 329 329 327
317 317 315 315 314 314 314 314 314 317 318 317 318 318 320 319 320 320 318 320 318 319 334 347 349 349 354 354 351 345 342 343 343 342 342 342 344 345 346 346 345 344 338 334 332 329 328 327 327 328 328 329 330 330 331 334 336 336 337 337 337 337 337 337 336 334 333 331 332 334 335 335 336 337 338 337 337 336 336 335 333 331 329 327 330 333 333 335 335 334 333 332 328 328 330 329 327
316 317 316 316 318 316 314 314 314 318 318 318 318 318 320 319 320 318 318 318 317 329 339 346 345 349 353 352 350 345 343 342 342 342 342 342 345 346 347 345 343 341 337 335 333 330 328 328 328 327 328 328 330 330 331 332 333 334 335 335 335 336 336 335 334 333 331 331 332 334 335 336 336 337 337 336 336 335 335 335 333 331 329 328 331 333 334 334 334 333 334 332 329 329 330 329 327
315 317 315 317 319 317 315 314 315 316 316 319 318 319 320 319 319 317 320 316 318 336 342 343 344 350 352 351 351 346 343 341 340 342 342 343 345 347 347 345 344 340 337 336 333 331 330 328 328 328 328 328 329 330 331 331 331 332 333 332 332 333 334 334 334 333 333 334 333 334 335 335 337 337 337 336 335 334 334 335 333 331 329 328 329 331 332 333 333 333 333 331 330 330 330 330 327
315 315 315 317 316 315 315 314 315 314 314 319 318 320 320 318 320 317 319 316 322 336 340 342 344 352 352 351 353 347 343 341 340 342 342 342 343 346 346 346 346 341 338 337 335 333 332 330 329 328 328 328 329 330 330 331 331 331 331 330 330 332 334 334 333 332 333 335 335 335 335 335 336 336 337 335 334 333 333 334 334 332 331 329 328 330 331 331 330 332 333 331 330 331 331 330 328
316 315 316 316 315 314 315 316 316 314 314 318 317 319 319 318 319 318 320 317 320 332 338 339 339 348 350 349 351 346 343 341 341 342 342 342 343 345 346 347 347 344 340 338 337 336 335 332 330 329 328 328 329 329 330 331 331 330 330 331 331 333 334 334 333 332 334 335 335 336 336 336 336 336 336 334 333 333 332 332 333 333 332 331 329 329 330 329 329 331 332 331 331 331 331 330 328
315 316 316 315 316 314 315 317 316 314 316 318 318 319 319 318 319 318 320 320 318 328 336 337 336 343 346 346 347 345 344 342 342 343 342 343 343 344 345 346 347 346 344 341 340 340 339 334 332 331 330 329 329 329 329 330 331 330 330 332 333 335 335 334 334 332 334 335 334 336 336 336 337 337 337 334 333 332 332 332 333 334 334 332 330 330 330 330 330 331 332 331 331 331 331 330 329
314 317 318 315 316 315 315 317 316 316 317 317 319 319 320 317 319 318 319 320 318 329 338 337 340 344 345 346 346 345 345 342 343 343 343 343 342 343 343 343 345 347 346 344 344 344 342 337 334 333 332 332 330 329 328 330 331 331 332 334 335 336 335 334 333 332 334 335 334 335 336 337 337 337 337 336 334 332 332 331 332 333 333 333 331 331 332 331 331 331 332 332 332 332 331 330 330
315 317 318 315 316 315 315 316 315 316 316 317 318 317 319 317 317 319 319 321 318 332 344 344 347 350 347 346 345 345 345 342 343 343 342 342 342 342 342 343 344 345 346 346 346 346 344 340 337 336 336 336 333 330 330 330 330 331 333 335 336 336 335 335 334 332 333 334 335 335 335 337 337 337 336 337 336 333 333 332 332 332 331 333 333 332 332 332 332 331 330 330 331 332 331 331 330
314 316 317 316 316 316 315 315 315 316 316 317 317 316 318 317 319 319 318 321 318 331 347 350 350 351 347 345 345 344 345 343 343 343 342 342 342 341 341 343 343 344 345 346 346 346 345 343 340 340 339 338 336 335 335 332 329 331 333 335 335 335 335 335 335 333 333 334 335 335 334 336 337 337 336 337 337 335 334 333 332 331 330 332 332 331 331 331 331 330 329 329 330 331 330 330 330
314 316 315 316 315 315 315 314 315 316 317 315 316 316 317 317 317 319 318 319 316 324 343 351 351 351 348 346 346 345 345 344 343 343 342 342 343 341 341 342 342 343 344 346 346 345 345 344 342 343 341 340 339 339 339 335 332 333 334 334 334 334 335 335 335 334 334 335 335 335 335 336 337 337 337 337 337 336 334 333 332 331 330 330 330 329 328 328 329 328 327 327 328 328 329 329 328
315 315 315 316 314 314 313 315 316 316 316 315 316 316 316 317 315 320 317 316 324 329 341 349 350 350 349 349 348 347 346 345 345 342 340 339 339 339 340 342 342 343 343 345 345 345 345 344 343 344 342 342 341 340 341 339 334 335 336 335 334 333 334 335 335 335 335 335 334 336 336 336 336 336 337 337 336 336 335 334 333 331 329 329 329 328 329 330 330 328 328 328 326 326 328 328 327
315 314 315 315 314 314 314 315 315 316 316 315 316 316 315 315 315 319 315 321 337 341 341 347 348 348 349 349 348 348 346 346 345 341 337 334 332 334 336 339 342 342 343 344 344 345 344 343 343 343 343 342 342 341 342 341 338 338 337 336 336 336 336 336 335 335 336 336 335 335 336 337 336 336 337 336 336 337 336 335 334 332 330 331 331 331 332 334 333 332 332 331 328 327 328 329 328
314 314 314 314 315 315 315 315 315 315 316 316 315 315 315 314 315 316 319 333 344 344 345 347 347 348 349 350 349 347 343 341 341 337 335 333 331 332 332 336 342 341 341 343 344 344 344 344 343 343 342 342 341 342 342 342 340 341 340 338 339 339 338 337 336 336 336 337 337 336 336 337 337 336 336 335 336 337 336 336 335 334 332 333 333 332 333 334 333 333 332 332 332 331 330 330 329
313 314 314 315 315 314 315 315 315 315 314 316 315 315 315 315 317 314 323 338 343 342 347 347 346 348 349 349 348 344 340 338 336 335 334 334 334 334 331 333 339 339 339 342 343 344 344 343 343 341 341 341 342 342 341 341 341 340 341 340 340 339 338 338 337 336 336 336 336 336 336 337 337 336 335 335 336 336 336 336 336 335 333 333 333 332 332 332 332 332 331 331 331 331 331 330 329
314 314 314 314 315 315 315 314 315 316 315 316 314 315 315 315 318 313 323 338 341 342 345 345 346 348 347 345 343 340 338 337 335 334 333 334 335 335 332 332 337 336 337 339 342 343 342 341 341 340 340 340 341 341 340 340 339 339 340 339 339 338 337 337 337 337 336 336 336 336 337 337 337 335 334 335 335 336 335 336 335 334 333 333 333 333 332 332 332 331 331 330 330 330 330 330 329
314 314 315 314 315 315 314 314 315 316 315 315 314 315 315 315 316 313 325 337 338 340 342 344 345 345 344 341 340 337 337 336 334 334 333 333 334 333 332 332 337 336 334 335 338 340 340 338 338 338 339 339 339 339 338 338 337 337 338 337 337 337 337 336 337 336 336 336 336 336 335 336 336 335 334 335 335 335 334 334 334 334 334 333 332 332 332 333 333 332 331 329 329 330 330 330 329
314 314 314 315 315 314 315 315 315 315 314 315 316 315 314 315 314 318 329 335 335 337 338 340 343 343 342 340 339 337 337 335 333 333 333 333 333 333 332 332 337 336 334 334 336 337 337 335 336 336 338 338 337 337 337 336 336 335 335 335 335 336 336 336 336 336 336 336 336 336 336 336 337 335 335 335 334 333 332 333 334 334 334 333 332 332 333 334 333 332 331 330 330 329 329 328 328
314 314 313 314 315 315 315 315 315 314 315 316 316 314 315 314 315 325 332 332 333 334 335 336 340 342 341 340 339 337 335 333 332 332 333 333 332 334 333 331 338 337 336 336 335 336 336 336 336 336 337 337 336 335 334 333 334 335 334 334 334 335 335 335 336 336 336 336 336 336 336 336 336 336 335 334 332 331 332 333 333 333 334 333 333 333 333 333 333 332 331 331 331 329 328 328 327
314 313 313 313 313 312 313 315 315 314 315 317 315 312 316 315 317 328 332 330 333 333 334 336 339 341 339 339 339 337 335 333 334 332 332 332 331 335 333 331 337 336 336 336 336 337 337 336 335 335 336 335 334 334 332 332 333 333 334 334 334 335 335 334 335 336 337 336 336 336 336 335 334 335 335 333 332 332 332 333 334 334 334 333 333 334 333 333 333 332 332 332 330 329 328 329 328
314 314 313 313 311 311 313 314 314 314 314 316 315 311 316 316 317 327 329 329 331 331 335 337 339 339 338 338 338 338 337 335 334 332 332 332 331 334 333 330 336 336 335 336 336 337 335 333 332 332 333 332 333 332 332 333 332 333 334 334 333 333 333 332 333 335 336 336 335 335 335 335 335 334 333 332 333 332 332 333 334 333 334 332 332 332 333 333 332 332 332 332 331 329 329 329 327
315 314 313 313 310 310 313 314 314 314 314 315 315 313 316 315 316 325 327 327 329 331 334 337 338 339 337 338 338 337 338 336 333 332 332 332 332 334 333 331 336 335 336 335 335 335 333 331 331 331 330 331 331 331 331 333 333 333 333 332 331 331 330 330 332 332 334 335 335 334 334 334 334 333 332 331 332 332 332 333 333 332 333 332 331 332 333 333 333 332 332 332 331 329 329 328 326
315 313 312 313 311 310 312 314 315 314 314 315 315 315 317 317 317 323 326 325 327 331 334 337 338 338 338 337 336 336 337 337 335 333 332 332 332 335 333 330 336 336 336 336 335 334 332 331 331 331 330 330 331 330 331 332 332 331 331 331 330 330 328 328 330 330 331 334 333 333 333 331 331 332 331 331 332 332 332 332 332 332 332 332 331 332 333 333 333 333 333 332 331 330 330 328 325
317 315 313 314 312 312 312 313 316 315 316 316 316 316 316 319 320 321 324 325 328 332 335 338 338 336 336 336 336 335 336 338 339 332 331 333 333 334 334 331 336 337 336 336 336 334 333 333 332 332 331 330 330 330 329 329 329 329 330 329 329 330 329 329 328 329 330 330 330 331 331 330 330 330 330 330 331 331 330 329 330 331 331 331 331 332 332 333 333 333 332 332 331 331 330 329 327
318 317 316 318 316 314 312 313 316 315 315 317 316 316 316 320 322 321 321 326 330 333 335 338 336 335 335 334 335 335 335 338 338 331 331 333 333 334 334 334 337 337 336 337 336 335 334 334 333 333 333 330 330 329 328 328 327 326 327 326 326 327 328 329 329 329 329 327 327 328 328 328 328 328 328 329 329 329 328 327 328 329 330 331 331 332 332 332 332 332 332 331 331 331 330 329 329
320 319 318 317 314 314 315 315 316 317 316 317 318 318 318 321 323 322 322 327 331 332 334 336 334 334 334 334 335 335 335 336 333 331 332 332 333 335 335 336 337 335 336 337 337 335 335 335 334 333 333 331 331 329 327 327 325 323 323 324 324 325 325 327 327 327 326 325 325 325 325 326 327 326 326 325 325 326 327 327 327 327 329 330 330 330 331 331 331 331 331 329 330 331 330 329 330
324 320 318 315 314 314 317 316 317 323 321 319 321 320 320 321 323 325 321 324 330 331 333 335 333 332 333 334 335 335 336 334 332 331 332 333 333 335 336 337 336 335 337 338 336 335 334 335 333 332 332 331 329 327 326 324 323 323 323 323 324 324 325 326 326 325 325 324 324 324 324 323 322 324 325 324 323 324 326 327 327 327 327 329 330 330 330 330 331 331 331 331 329 330 330 330 330
326 322 317 316 314 314 321 320 317 325 325 322 323 320 320 323 321 324 322 322 327 331 333 334 333 333 332 333 334 335 335 333 333 333 334 333 334 335 337 338 336 336 338 337 336 335 334 334 333 333 332 329 327 326 326 325 324 324 323 323 323 324 325 326 324 322 322 321 321 322 322 321 320 322 324 324 323 324 327 327 326 325 325 327 329 330 330 330 330 330 330 331 330 328 329 330 330
324 321 318 317 316 315 326 329 321 322 323 321 324 322 322 325 322 324 327 323 325 330 332 334 334 334 332 332 334 335 333 332 336 336 334 333 334 336 338 338 337 337 337 336 335 334 334 334 334 333 330 328 327 327 327 325 324 323 322 322 323 324 324 324 322 320 321 321 321 323 324 323 322 322 322 322 322 323 324 325 325 325 326 326 327 327 328 328 329 329 329 330 330 329 328 329 330
322 320 316 316 316 312 321 332 327 326 327 322 325 326 325 328 326 326 327 327 328 329 330 333 334 333 332 331 333 334 332 334 336 335 334 333 332 334 336 338 338 337 337 336 335 334 334 335 334 333 330 329 328 328 326 324 323 323 323 323 324 323 323 321 321 321 322 322 322 323 323 323 323 322 322 321 321 321 321 321 323 324 324 325 326 326 327 327 328 328 329 329 330 329 329 329 330
325 323 318 316 318 315 318 329 330 331 333 327 325 326 328 329 324 325 326 326 329 326 326 329 329 329 330 332 333 332 332 335 334 333 333 333 331 332 334 336 337 337 338 337 336 335 335 335 334 333 331 330 328 326 324 323 323 324 324 324 323 322 321 321 321 321 321 321 322 323 322 322 322 321 321 320 320 320 319 320 321 322 321 322 324 324 326 326 325 327 328 329 329 328 328 329 330
323 327 325 321 322 321 321 326 326 325 328 331 326 323 331 332 321 323 327 325 326 324 324 325 325 327 328 332 333 332 333 333 332 330 331 333 331 331 333 334 335 336 338 338 337 336 335 335 334 332 331 330 327 325 323 322 322 323 324 322 321 320 321 321 321 321 321 322 324 323 322 323 322 321 320 320 319 320 320 319 318 319 319 319 320 321 322 322 322 324 326 328 328 328 328 328 329
319 325 328 325 323 323 325 324 321 320 323 332 328 322 330 332 322 325 326 324 324 323 325 325 324 326 328 331 333 333 334 332 331 329 328 331 331 330 331 331 333 335 337 339 338 336 335 335 334 332 331 330 327 325 324 323 322 323 323 320 318 320 322 322 321 320 322 323 322 322 322 321 320 320 320 320 320 319 319 318 318 319 318 316 317 319 319 319 320 322 323 324 325 326 327 327 328
319 328 325 323 322 323 326 323 319 320 321 327 326 320 322 322 323 328 324 321 324 323 325 327 325 327 329 332 332 332 333 332 331 330 328 330 330 330 331 332 334 335 336 338 338 337 336 335 334 331 331 329 327 326 325 323 322 322 321 318 318 321 322 321 321 321 321 320 320 321 321 321 321 320 320 319 319 319 318 317 316 317 317 315 314 316 317 317 319 320 320 320 322 323 325 326 326
323 330 325 321 321 322 324 321 319 320 318 321 326 320 318 320 324 327 323 320 322 324 325 326 324 325 329 332 331 331 332 332 332 331 331 331 328 328 331 334 335 336 337 338 338 337 336 335 334 331 330 329 327 326 325 323 322 320 318 318 321 323 322 321 321 320 320 320 320 322 322 321 321 320 319 318 317 317 317 316 315 315 315 315 314 314 315 316 316 318 318 318 319 320 321 321 322
324 325 322 321 321 323 323 321 320 319 319 324 328 320 317 323 326 325 325 321 320 326 326 325 323 322 326 329 330 331 331 332 333 332 332 331 327 327 329 333 336 336 337 338 338 337 336 335 333 330 329 329 327 326 325 323 320 318 317 320 322 322 321 321 320 320 320 321 321 321 320 319 319 318 317 316 316 315 314 314 315 316 316 316 316 315 315 316 315 316 317 316 316 317 318 318 318
324 321 320 320 321 321 321 320 318 318 324 329 327 321 319 323 322 324 329 325 324 329 327 325 324 322 323 326 329 331 330 330 332 332 332 328 327 328 328 331 334 336 337 337 338 337 336 335 332 330 329 328 328 326 325 323 320 319 319 321 323 322 321 321 320 320 320 321 321 320 319 318 318 317 317 316 316 316 314 314 315 316 317 316 316 316 317 318 317 316 317 316 317 316 315 316 316
319 319 319 319 322 325 324 323 322 322 328 330 323 321 322 322 323 328 333 326 325 330 327 324 324 323 323 323 325 326 326 328 329 332 333 330 330 330 329 331 331 333 334 335 337 336 336 335 331 330 329 329 329 326 324 323 320 320 321 321 323 322 321 321 320 320 321 321 319 320 320 318 317 317 317 317 316 315 315 316 315 315 316 317 317 317 317 317 316 317 317 317 317 316 314 316 316
316 317 315 314 320 328 330 329 327 327 332 330 323 322 323 325 327 328 329 325 323 326 325 323 324 325 323 320 321 322 324 327 329 331 335 337 337 332 328 330 330 330 331 333 336 335 335 336 332 330 330 329 329 325 324 323 320 320 322 322 322 321 321 321 320 319 320 320 318 320 320 318 317 316 317 317 316 315 315 316 316 314 314 315 316 317 317 315 314 314 314 313 314 314 313 315 316
315 315 316 317 319 325 329 327 325 329 333 330 326 325 324 327 330 327 324 323 323 324 324 324 326 326 323 321 323 326 326 327 329 330 334 339 338 332 329 330 329 329 330 331 334 334 334 334 332 330 329 330 329 325 323 323 320 320 322 322 322 321 320 321 320 320 321 319 319 320 319 318 317 316 317 317 316 316 316 317 318 314 312 312 312 314 317 316 316 314 312 314 316 315 312 311 313
316 315 317 321 322 323 326 327 327 329 330 327 324 324 324 329 337 335 325 321 320 321 322 325 326 324 323 323 324 327 329 329 330 331 335 337 333 329 329 331 329 329 330 330 331 331 331 330 329 328 327 329 329 324 323 324 321 321 322 322 322 320 320 321 320 320 321 320 319 320 320 319 319 317 317 317 316 316 318 318 319 316 312 309 309 312 317 317 317 316 313 313 315 313 311 309 310
319 317 315 320 322 323 326 329 329 326 325 326 324 323 325 330 336 332 324 320 319 319 321 323 324 324 324 326 326 328 329 330 331 332 335 335 330 327 329 330 330 330 329 329 328 328 328 326 326 326 326 327 327 325 325 325 321 321 323 322 321 320 320 321 321 320 321 321 320 320 320 319 319 318 318 318 317 316 318 319 318 318 314 311 309 312 316 316 316 316 313 312 313 313 314 313 309
318 315 315 318 319 322 324 324 324 321 323 328 323 320 322 323 326 327 322 320 320 319 320 322 324 325 325 327 328 328 329 330 332 333 335 334 329 327 327 328 330 329 328 328 327 328 328 327 326 325 324 324 325 324 325 326 323 322 323 322 321 319 319 321 321 321 321 321 320 319 320 320 320 319 319 319 317 316 318 319 318 318 316 313 312 313 316 316 316 317 314 313 314 316 318 316 313
314 313 315 316 316 322 323 320 320 319 321 324 320 319 321 320 325 328 322 319 319 319 321 323 325 326 326 327 328 329 330 331 332 332 334 332 327 326 326 327 328 329 329 329 328 328 328 327 325 324 323 324 325 324 324 326 325 325 324 322 322 320 320 321 321 321 321 321 321 320 319 320 320 320 319 319 319 317 318 318 318 319 318 316 313 314 317 316 315 317 316 313 315 316 316 316 315
313 313 313 314 318 320 319 319 323 323 320 321 320 320 319 320 326 327 321 320 322 321 321 324 326 326 327 328 328 329 329 330 330 330 332 331 326 324 325 325 326 327 327 328 329 328 327 326 324 322 321 323 324 325 325 325 325 326 325 323 322 321 321 320 320 322 321 320 321 321 320 319 319 320 320 319 320 319 318 318 319 319 318 318 316 313 316 316 314 317 316 314 316 315 314 315 315
316 313 312 315 316 315 316 319 322 323 321 321 322 321 322 325 327 324 323 325 326 323 323 324 325 326 326 327 328 330 330 329 329 328 330 329 324 323 325 325 324 325 326 326 327 327 327 328 326 324 323 323 324 325 325 324 324 325 324 324 323 322 322 321 319 321 322 320 320 320 321 320 319 320 319 320 320 319 319 318 319 319 319 319 318 315 315 315 314 316 316 315 317 315 313 315 315
317 317 317 320 318 317 321 321 317 318 321 323 322 322 325 332 330 323 325 327 326 326 325 324 324 324 326 326 327 329 329 330 329 328 329 327 322 322 324 324 324 324 325 325 325 326 326 327 326 325 325 325 324 324 323 323 324 323 323 324 324 324 323 323 322 321 322 320 320 320 321 321 320 319 319 319 320 320 320 319 318 319 319 319 320 318 316 315 314 315 315 314 316 314 314 316 315
316 316 317 324 328 326 325 326 323 320 323 330 331 326 327 333 328 323 326 326 324 326 327 324 322 323 325 325 326 327 328 329 328 327 328 325 321 321 322 322 322 323 324 323 324 324 324 325 325 324 324 324 323 323 323 324 323 322 323 324 325 325 324 324 323 322 322 321 321 321 321 321 321 320 320 319 320 320 320 320 320 320 320 320 320 319 318 316 315 315 315 314 315 314 314 316 316
Wind_Speed
2 2 3 4 5 6 6 2 1 2 2 2 4 4 7 9 8 8 9 4 2 3 5 8 13 16 13 11 13 13 10 6 2 3 3 4 17 29 29 32 35 34 33 30 29 29 28 26 24 23 21 20 19 18 18 17 17 17 17 17 16 16 17 17 17 17 17 16 15 13 11 12 13 15 16 16 16 14 14 13 13 12 12 12 13 15 16 15 14 14 13 13 13 12 12 11 10
1 3 7 9 7 3 3 2 1 2 2 3 5 6 8 8 7 6 2 5 4 1 6 12 15 18 18 14 14 15 12 10 8 7 7 17 23 24 30 33 35 35 33 31 31 30 29 26 24 23 21 21 19 18 17 17 17 17 17 17 17 17 17 17 17 17 17 16 15 14 12 13 13 14 15 15 15 14 13 12 10 10 10 11 13 14 15 14 14 13 12 12 12 11 11 11 10
4 5 8 8 6 3 2 1 1 2 2 4 7 6 7 8 5 0 6 7 4 4 6 12 13 10 16 16 13 12 7 7 12 10 9 19 18 18 28 32 35 35 34 32 31 31 29 27 25 23 22 20 19 18 17 17 17 17 17 17 17 17 18 17 17 17 17 16 15 15 14 14 14 13 13 13 14 12 11 10 10 9 10 12 13 14 13 13 13 12 12 12 11 11 11 10 9
7 6 6 5 2 2 1 1 3 2 2 5 6 4 6 5 4 5 5 6 5 6 5 9 9 6 15 16 10 9 7 6 10 10 7 14 18 22 28 31 35 34 33 31 31 31 29 27 25 23 22 20 19 18 17 17 17 17 18 18 18 17 17 17 17 17 17 16 15 15 14 14 14 13 13 13 12 10 9 9 9 10 11 12 12 13 12 12 12 11 11 10 10 10 9 9 8
7 5 7 5 0 1 1 1 2 3 4 5 4 5 5 4 4 5 4 6 6 5 5 6 5 5 12 11 4 4 4 5 10 12 11 17 26 29 29 32 34 32 31 31 31 31 29 27 25 24 22 21 19 18 17 18 18 18 19 19 18 17 18 17 17 16 16 15 15 15 15 14 14 13 13 12 11 9 9 9 10 10 10 11 10 11 11 11 11 11 10 9 8 7 7 7 6
6 6 7 5 2 2 0 2 3 3 7 7 6 7 3 3 5 4 3 4 5 5 6 8 8 8 9 6 6 5 3 4 7 13 18 22 27 29 30 33 32 31 30 30 31 30 29 27 25 24 22 20 19 18 18 18 19 19 19 19 18 18 18 18 17 16 15 15 15 15 14 14 13 13 12 12 11 10 10 10 10 9 9 9 9 10 11 10 11 11 9 8 7 5 5 5 5
5 5 3 2 2 2 0 3 5 5 8 10 9 8 4 3 1 4 4 4 5 4 8 11 12 13 7 4 5 12 17 12 10 15 24 26 28 29 29 30 31 29 28 30 31 30 28 26 25 24 22 20 19 18 18 19 19 19 19 19 19 18 18 17 17 16 16 16 16 15 15 14 13 13 13 12 11 11 11 10 9 8 8 8 8 9 10 10 10 10 7 6 5 4 5 4 4
7 4 1 1 1 1 2 4 5 5 8 11 11 8 6 5 4 4 4 3 2 1 8 12 16 14 7 7 6 10 22 20 21 23 26 25 23 24 27 28 30 28 27 30 30 29 27 25 25 23 21 20 19 19 19 19 19 19 19 18 18 18 18 17 17 17 16 16 16 15 15 14 13 13 13 12 11 10 9 8 8 7 7 7 6 8 9 8 8 7 5 2 3 4 5 4 4
7 4 1 1 1 2 3 5 6 7 10 12 13 11 7 2 2 4 1 2 1 0 7 11 14 11 6 11 8 5 13 15 22 24 23 20 11 12 20 24 28 28 27 29 30 28 27 25 24 22 21 19 19 19 19 19 19 19 19 18 18 18 18 17 17 17 16 16 15 15 14 13 13 12 12 11 10 9 8 8 8 7 7 6 6 8 8 7 6 5 3 1 3 4 4 6 6
3 4 2 1 2 3 5 5 6 8 10 12 13 13 5 3 3 4 2 3 3 5 10 11 13 13 10 10 5 2 5 13 21 20 20 19 11 10 15 19 24 28 28 30 30 28 26 25 24 22 21 20 19 20 20 19 19 19 18 18 18 17 17 17 17 17 16 15 14 13 13 13 13 12 11 10 9 8 8 8 7 7 7 7 6 8 7 6 5 5 3 2 4 5 6 8 8
1 3 2 1 2 4 5 5 7 7 9 9 12 14 5 4 3 4 4 1 3 3 11 13 11 13 11 7 3 3 8 17 23 20 17 17 19 19 17 17 20 25 29 30 29 27 26 24 23 22 21 20 19 20 20 19 19 18 18 18 17 17 17 17 17 16 15 14 13 12 12 12 12 11 10 9 8 8 7 7 7 7 7 7 7 7 7 6 5 4 3 4 5 7 9 9 9
2 3 1 2 3 4 5 5 8 8 8 6 9 9 3 6 5 4 4 1 1 1 5 8 8 9 9 5 2 6 11 16 21 19 17 18 22 24 22 19 18 25 30 30 29 27 25 24 22 21 20 20 19 20 20 19 19 18 18 18 17 17 16 16 16 15 14 13 12 11 11 11 11 10 9 9 8 7 7 7 7 7 7 7 8 8 7 6 5 4 4 5 6 9 9 8 8
3 3 1 3 4 4 6 6 8 8 6 4 4 5 3 7 5 3 5 4 5 5 4 7 9 7 7 3 2 5 9 15 20 19 19 21 22 24 24 20 20 26 30 30 29 27 25 24 22 21 20 19 18 19 19 19 19 18 18 18 17 16 16 16 15 13 12 12 11 10 10 10 9 9 9 8 8 7 7 7 7 8 8 8 8 8 7 6 5 4 4 5 7 8 7 6 6
4 3 2 3 4 4 5 5 6 6 5 4 1 4 3 4 5 6 8 7 8 6 7 10 10 10 6 2 2 2 7 17 22 22 22 23 22 24 25 21 22 27 28 29 28 26 25 23 22 21 20 19 18 18 18 18 18 18 18 17 17 16 15 15 13 12 11 11 11 10 10 9 9 8 8 8 7 7 6 7 7 7 8 8 8 8 7 6 5 4 4 5 6 6 5 5 5
5 3 2 3 4 5 4 6 7 6 5 5 2 1 1 3 4 7 6 4 5 10 9 9 8 6 6 6 4 5 11 20 23 24 23 22 21 22 25 23 22 24 26 27 26 25 24 23 22 21 20 19 18 18 18 17 16 17 16 16 15 15 15 15 13 12 12 12 11 10 10 9 9 9 9 8 7 6 6 6 7 7 7 8 8 7 7 5 5 4 4 4 6 6 4 5 5
4 3 2 2 4 5 4 5 7 6 5 3 4 5 3 4 5 4 5 2 4 8 7 4 4 5 10 8 8 14 19 23 23 24 23 21 20 22 25 24 23 24 24 25 25 24 22 23 22 21 20 19 19 18 18 16 15 16 16 15 15 15 15 14 13 13 12 11 10 10 10 10 10 9 9 9 8 7 6 6 7 7 7 7 7 7 6 5 5 4 4 4 5 6 4 5 4
3 3 3 3 4 5 5 5 6 4 2 4 5 6 5 5 6 3 4 5 2 6 8 3 2 6 11 10 19 26 25 25 24 24 22 20 19 22 23 23 23 23 23 24 23 23 22 23 23 22 21 19 19 19 18 17 16 16 16 15 15 15 14 14 15 13 12 10 10 10 10 11 10 10 9 9 9 8 7 7 7 7 6 6 6 6 6 5 4 4 3 3 4 5 4 4 4
4 2 4 5 4 6 6 8 8 4 1 3 4 4 5 5 5 5 5 4 2 8 10 6 6 8 11 19 30 31 27 27 26 24 21 18 17 17 18 21 23 23 23 24 23 23 22 23 23 22 20 19 19 19 19 18 17 16 16 16 16 16 15 15 15 14 12 11 11 10 10 11 11 9 8 9 9 9 8 7 7 6 6 6 6 5 5 5 4 3 2 3 4 5 4 3 3
4 2 4 5 5 7 9 12 10 6 3 3 5 5 4 4 5 3 4 4 3 8 8 8 12 12 14 22 28 28 27 26 25 23 19 17 16 14 16 20 22 23 23 24 24 24 22 23 24 22 21 21 19 19 19 18 17 16 16 17 17 17 16 15 15 14 12 11 10 10 11 10 10 10 9 9 9 9 8 8 7 6 5 5 5 4 4 4 4 3 3 3 4 5 5 4 4
5 4 4 5 5 8 11 13 11 6 4 4 6 6 5 5 4 1 2 6 5 5 8 8 12 13 13 17 22 25 25 23 23 22 19 17 17 17 17 20 23 23 24 24 24 23 23 23 24 23 23 22 20 19 18 18 18 17 17 17 17 17 16 15 14 13 12 11 10 10 11 10 9 9 10 9 9 10 9 8 7 6 5 5 4 4 3 3 3 3 3 5 6 6 7 5 5
4 5 6 6 7 9 12 12 8 5 5 6 5 6 6 6 4 1 2 3 5 1 11 13 14 16 15 15 17 20 20 19 18 17 15 14 17 20 21 23 24 25 25 24 23 23 22 22 23 23 23 22 20 19 19 19 20 19 18 17 17 16 15 15 14 13 12 12 11 10 11 11 10 9 9 9 9 10 9 8 7 7 6 5 4 4 4 3 3 3 3 5 6 6 7 6 5
4 6 8 9 9 9 12 11 5 4 5 6 5 6 3 4 4 1 1 3 2 1 12 17 16 16 16 15 14 15 16 15 14 11 7 6 4 6 14 22 22 23 25 24 23 23 22 20 22 23 23 22 20 19 18 20 21 19 18 17 16 15 15 15 14 14 13 12 11 10 10 10 10 10 9 9 9 9 9 8 7 7 6 5 4 3 3 2 2 3 2 3 4 4 4 4 4
5 6 7 9 10 9 10 10 6 2 2 3 2 4 3 4 4 2 3 1 5 7 13 15 14 12 13 14 12 13 13 13 13 12 10 12 9 9 3 14 20 21 24 24 24 24 22 22 22 23 23 22 19 17 17 19 20 18 18 18 16 15 15 15 14 14 13 11 10 10 11 11 11 10 9 10 10 9 8 8 8 8 7 6 4 4 4 3 4 3 2 3 3 3 3 4 5
7 6 7 9 9 10 9 9 8 3 2 3 3 5 6 6 5 3 3 8 12 13 16 16 11 10 10 10 10 11 10 10 9 10 15 21 19 6 7 9 17 22 23 25 26 25 23 23 23 22 21 20 20 18 17 19 19 17 17 17 15 14 13 13 13 14 13 12 10 10 11 12 11 10 10 11 11 9 9 10 9 9 8 7 6 6 7 5 6 7 6 5 7 7 9 9 8
9 9 8 8 8 10 9 8 10 6 2 2 4 4 7 9 4 4 4 14 15 14 17 16 13 11 9 8 9 10 9 7 6 8 11 17 23 19 9 16 15 22 24 26 27 26 24 24 23 22 21 20 20 18 17 18 17 16 16 15 14 13 12 11 12 13 12 12 12 10 10 11 10 9 10 10 10 10 10 11 10 10 9 9 10 10 10 10 11 10 10 9 8 9 10 8 5
8 8 5 5 6 9 10 10 9 7 3 2 4 5 8 8 4 4 4 15 14 14 16 15 14 12 10 8 9 9 9 8 6 8 9 12 20 23 12 22 17 21 24 29 28 27 25 25 24 23 22 20 19 17 16 17 14 14 15 15 14 13 12 11 12 11 10 11 12 11 10 10 9 9 10 9 8 9 9 10 10 10 10 10 12 12 12 13 13 10 8 9 10 11 11 7 3
5 4 3 5 6 8 10 9 6 5 5 6 5 6 9 8 5 4 6 16 14 15 15 15 13 11 10 8 8 8 8 8 8 10 10 9 14 22 10 21 17 22 23 27 26 29 28 25 24 22 23 21 18 16 14 14 12 13 14 13 12 12 12 9 10 9 8 9 10 11 10 9 10 10 9 8 7 7 8 9 9 9 11 11 11 12 11 11 11 8 7 9 11 11 11 9 4
8 5 3 6 6 7 8 8 6 5 5 7 7 8 10 7 6 4 10 14 14 15 14 14 13 10 9 9 8 7 7 9 11 10 10 7 9 23 10 20 14 25 22 21 21 29 30 27 24 21 23 21 17 16 14 13 12 12 12 12 11 11 11 9 9 9 7 7 7 10 11 10 11 11 9 7 5 6 6 7 8 9 10 11 10 11 10 11 11 9 8 8 10 10 8 8 5
8 7 4 6 6 8 9 7 7 6 4 6 6 6 8 7 5 10 14 12 14 15 12 12 12 10 9 9 7 6 7 10 13 9 9 10 10 24 14 21 12 25 19 17 19 28 29 27 25 20 20 18 15 14 12 12 13 12 10 11 11 9 10 9 9 9 8 8 7 9 10 9 10 9 8 6 3 3 4 6 8 9 10 9 9 9 9 10 11 10 8 7 7 7 6 4 4
6 6 3 4 5 8 9 8 10 9 7 7 5 3 7 8 5 15 16 13 16 13 11 11 10 10 8 7 7 5 8 8 11 10 12 14 11 23 15 19 13 22 18 20 23 28 29 27 25 20 20 17 15 13 11 12 13 13 12 12 10 9 9 8 8 9 9 8 7 8 8 7 7 6 6 7 7 7 7 8 8 9 9 8 8 8 8 9 9 10 8 5 4 6 4 4 6
4 4 3 3 3 8 8 8 12 11 9 8 8 3 7 8 6 15 15 16 18 12 11 12 9 9 7 7 7 5 6 7 10 12 15 14 11 21 13 20 14 21 20 24 24 27 28 27 24 22 22 19 18 16 13 15 15 15 15 12 10 8 8 8 9 10 9 7 5 4 5 6 7 7 6 7 8 10 9 8 8 9 9 8 7 8 8 8 8 9 8 5 5 6 5 5 7
3 2 5 3 4 8 8 10 14 13 8 9 10 4 6 8 7 12 12 14 17 13 12 12 10 10 7 7 7 6 6 8 11 13 16 16 13 21 12 20 13 23 22 25 25 25 25 23 22 21 21 19 19 18 18 19 18 16 14 11 11 9 8 9 10 10 9 8 5 5 5 4 5 6 6 6 8 9 9 8 9 9 9 7 6 5 6 6 6 8 8 6 5 7 6 6 5
2 4 6 4 6 8 8 9 13 13 6 9 11 4 5 7 5 11 13 12 16 15 14 13 12 11 8 7 6 7 7 6 9 10 15 20 18 22 11 19 15 25 21 24 25 24 25 23 22 21 20 19 19 18 19 21 20 17 14 11 10 8 7 8 11 12 11 10 8 7 7 7 5 4 4 5 6 6 6 7 7 8 8 7 5 4 4 5 5 5 7 6 6 7 6 5 3
3 4 6 5 6 6 4 4 8 12 7 8 9 6 5 7 3 8 12 13 14 14 14 14 12 10 8 7 5 7 8 7 7 8 17 25 24 25 16 17 18 26 21 22 22 23 24 22 21 20 19 18 18 18 17 18 18 17 15 12 11 9 7 7 9 12 13 12 11 11 9 9 7 6 7 5 3 3 1 1 2 4 5 5 5 6 6 6 5 3 5 6 7 7 7 5 5
3 5 4 5 7 5 6 5 6 11 8 8 7 6 7 7 4 4 9 16 15 12 13 12 11 12 10 9 7 6 7 7 7 11 17 22 25 26 22 20 21 25 21 20 20 21 23 22 22 21 20 20 20 19 18 18 17 16 15 14 14 14 12 11 10 10 13 13 12 11 10 10 10 8 8 7 6 5 5 5 4 4 2 1 3 5 6 7 6 3 4 6 6 8 9 9 8
4 6 4 5 7 4 4 6 6 7 7 6 7 6 7 5 6 3 7 15 15 12 12 10 10 10 10 9 7 7 8 7 9 15 16 17 22 21 21 21 25 23 21 20 20 21 23 22 22 21 21 21 22 21 19 19 17 15 15 15 15 14 14 16 15 14 13 13 12 11 10 11 11 9 8 7 6 6 6 6 6 6 6 3 0 1 4 7 6 3 4 6 5 6 9 11 9
4 6 5 7 7 5 3 6 4 5 6 3 2 4 6 5 6 5 5 11 14 14 12 10 10 9 10 10 10 9 8 8 12 17 17 17 19 20 20 23 26 23 21 21 20 21 22 23 23 22 22 22 23 23 21 20 18 17 17 16 16 14 14 17 17 14 12 12 11 10 10 8 7 9 9 8 6 5 6 8 7 7 8 5 2 1 1 4 5 4 3 6 6 5 7 8 8
5 5 5 7 7 6 5 6 4 7 5 2 5 4 6 5 5 5 3 7 11 15 14 13 13 10 10 12 13 12 8 8 11 14 16 19 20 20 23 26 27 25 23 22 21 21 21 23 23 23 23 23 23 23 21 19 18 18 17 16 17 16 14 14 13 11 11 11 10 11 11 9 9 11 12 10 9 10 11 10 8 8 9 7 5 4 2 1 3 4 3 5 7 8 8 7 7
4 4 5 6 5 4 6 5 6 7 3 3 6 6 6 6 7 5 2 7 10 14 15 15 15 12 11 12 13 12 10 10 11 11 15 20 21 19 23 26 26 27 25 23 22 21 22 22 23 24 24 24 23 21 20 20 18 17 17 18 19 18 15 13 12 12 13 12 11 12 11 9 9 10 11 11 12 14 14 11 8 7 8 6 6 8 6 5 3 4 4 6 8 9 9 7 8
2 2 2 6 6 3 4 5 4 5 3 1 5 7 6 6 8 7 2 6 8 11 14 14 14 14 13 13 14 13 13 12 11 11 11 15 17 17 21 23 23 25 25 24 23 23 23 22 23 25 24 24 21 20 20 20 19 19 20 22 23 22 19 16 16 15 15 14 13 13 12 11 11 12 12 12 12 13 12 10 9 10 9 6 5 7 7 7 6 4 4 5 8 9 7 5 6
4 3 3 5 7 4 1 2 4 6 5 2 4 6 6 6 6 6 5 3 6 8 11 12 11 11 12 12 13 12 12 12 12 11 9 10 13 15 20 22 21 23 24 24 25 25 24 23 24 25 24 23 22 21 22 22 23 25 26 26 24 22 20 19 18 17 15 15 15 13 12 12 13 15 13 11 11 12 11 10 10 10 10 10 9 8 8 10 10 7 5 5 5 7 7 5 4
4 4 5 6 8 8 4 1 3 6 5 3 4 3 5 6 5 7 6 1 5 6 8 9 8 8 11 13 11 10 10 10 11 12 10 10 13 16 19 21 21 22 23 23 26 27 25 24 24 24 23 23 23 23 23 23 25 27 27 25 24 23 21 19 19 18 18 17 15 14 12 10 10 12 12 11 10 10 11 11 9 8 9 10 12 13 13 13 12 10 8 7 5 5 7 8 6
3 4 4 3 6 8 5 1 3 3 2 4 5 5 3 6 6 7 5 3 5 6 6 7 5 8 11 12 12 11 9 10 10 11 11 11 14 16 17 21 23 23 25 24 25 27 26 25 25 24 24 23 24 25 24 24 25 25 24 23 23 24 23 20 19 19 19 17 16 15 13 11 10 11 11 10 9 9 11 10 8 9 9 7 7 9 11 11 12 12 11 11 9 7 8 9 9
3 6 4 5 5 6 5 4 2 3 2 3 2 6 2 4 6 7 6 5 5 5 6 7 7 10 13 12 12 14 13 12 12 11 12 12 15 17 18 22 24 25 27 25 25 27 27 27 26 24 24 24 24 26 25 25 25 24 23 22 23 23 23 23 21 20 18 16 17 16 14 13 13 12 10 11 11 10 10 9 10 12 10 7 6 7 8 7 10 12 12 12 11 10 9 8 9
4 5 4 1 4 6 7 5 3 2 2 4 5 3 3 4 6 6 7 5 2 3 4 5 6 7 13 16 14 14 12 11 11 11 11 11 15 21 23 25 26 26 28 28 27 27 26 27 27 25 26 25 25 26 26 25 25 24 24 24 24 23 23 23 21 20 18 17 18 17 15 15 14 12 11 11 11 10 9 9 11 13 11 10 9 9 8 8 9 10 10 10 10 11 12 11 11
5 2 1 3 3 4 5 4 3 2 3 3 6 2 2 4 6 4 4 3 1 3 2 3 4 4 8 15 11 9 9 9 11 12 12 13 19 24 24 25 25 26 29 29 28 27 27 29 30 28 28 27 26 26 26 26 25 25 25 26 27 26 25 23 21 21 19 18 19 17 14 14 14 12 11 11 11 10 9 9 11 12 11 10 10 10 10 10 10 10 10 9 9 10 10 12 12
3 3 3 4 3 3 3 4 1 2 1 5 5 2 2 4 4 2 1 2 3 4 2 3 5 7 7 12 10 8 9 8 11 12 11 13 17 20 22 23 24 24 26 28 29 29 28 30 31 30 30 30 29 27 27 28 27 26 25 26 29 29 26 24 23 22 20 19 19 17 14 14 15 13 12 11 10 9 9 10 10 11 10 9 8 9 10 10 10 10 10 10 10 9 9 10 10
3 4 3 4 4 4 2 3 2 1 4 4 2 5 3 3 3 3 4 2 4 6 4 7 9 9 8 10 9 8 7 6 7 8 6 8 10 13 18 20 22 22 20 21 25 27 27 30 32 30 29 30 29 29 28 28 28 27 24 26 29 28 26 25 24 23 22 20 19 18 17 16 15 14 12 10 9 9 10 9 9 9 9 8 8 8 8 8 8 9 9 9 9 8 9 11 11
3 3 2 2 3 3 3 3 2 1 4 4 3 5 2 4 4 3 5 2 4 5 6 8 11 9 8 9 9 8 9 9 9 7 5 6 5 7 12 16 20 20 17 16 19 22 23 24 27 28 30 32 30 29 29 28 28 27 23 25 28 25 25 25 23 23 22 20 20 20 19 16 14 14 12 10 9 9 10 9 7 7 7 7 8 9 7 6 6 6 7 8 10 10 9 11 11
3 4 3 4 2 2 1 3 1 1 4 5 4 1 1 4 4 3 7 5 1 6 8 8 9 9 8 10 12 11 10 10 9 8 6 6 5 4 5 12 17 16 17 19 18 20 20 19 21 19 20 27 29 29 28 26 27 26 22 24 26 24 25 24 21 22 22 19 20 20 18 16 15 13 12 11 9 8 9 9 6 5 7 6 7 9 7 5 4 5 7 8 9 8 8 9 10
3 4 4 5 4 3 3 2 2 2 4 5 2 1 1 2 4 5 5 3 5 9 8 8 8 8 10 11 12 11 9 9 8 7 7 6 6 9 7 5 15 15 18 20 17 17 17 18 17 9 8 15 23 27 27 25 25 24 20 22 25 24 24 23 20 20 20 19 18 19 17 16 14 13 12 10 9 9 8 8 6 4 5 5 6 9 9 6 5 3 4 6 6 6 7 9 8
3 1 2 2 4 5 3 3 5 5 2 3 2 2 2 2 5 6 3 2 8 8 7 8 8 9 12 10 9 9 8 7 7 7 7 6 7 11 13 8 13 17 17 17 16 16 17 17 15 9 8 6 6 11 15 18 23 23 19 21 24 24 23 21 20 19 18 18 17 17 16 15 14 13 13 11 10 10 9 8 7 5 4 4 6 9 9 7 5 2 2 4 5 7 7 8 8
2 2 0 2 5 6 4 2 2 3 2 2 3 3 1 0 4 5 3 4 7 8 8 9 9 10 11 9 8 8 7 7 7 7 6 6 8 11 13 13 13 15 14 13 13 15 17 16 13 13 10 2 5 11 11 11 18 19 18 20 22 23 22 20 20 19 17 16 16 16 15 14 14 14 14 13 11 11 11 9 8 6 5 4 5 8 8 6 5 3 2 4 5 6 5 4 6
2 2 4 3 2 4 4 1 2 2 1 3 4 3 1 1 2 5 2 3 6 7 9 10 10 11 11 9 9 8 8 8 7 7 7 6 8 10 13 15 14 12 11 13 15 17 17 16 16 19 16 6 9 21 20 13 13 13 14 17 19 21 20 18 18 18 17 16 15 17 15 13 13 14 14 14 12 12 12 10 9 8 6 5 5 7 7 6 6 6 3 3 5 5 5 4 4
2 4 5 1 3 1 1 2 0 0 1 3 3 2 1 2 2 5 4 3 5 6 8 10 10 10 10 9 9 9 8 8 7 7 6 6 8 12 15 17 18 17 12 9 12 14 13 16 21 25 24 13 10 17 20 13 8 8 10 12 15 17 17 16 15 16 18 17 15 16 17 14 13 13 14 14 13 12 11 11 10 10 9 7 5 6 7 7 7 8 6 5 6 6 5 6 6
2 3 3 1 4 2 1 2 3 3 2 2 3 3 2 1 3 2 3 4 7 7 7 7 9 9 9 8 8 8 8 7 6 6 5 5 8 13 16 17 18 19 18 16 13 11 10 13 21 23 23 20 15 17 21 17 10 11 12 10 12 14 15 16 15 15 18 19 16 15 15 14 13 13 13 13 13 12 11 11 11 11 11 10 8 7 8 8 8 8 7 7 8 7 6 7 7
1 2 2 2 1 2 1 2 1 2 2 1 1 2 3 4 2 2 2 2 7 9 8 5 7 10 9 8 8 7 7 7 5 5 4 5 8 12 15 15 16 16 17 18 18 20 19 15 17 17 18 23 20 18 22 22 18 16 16 13 13 13 14 15 14 14 16 19 18 16 14 13 12 13 13 13 13 13 12 11 11 11 12 12 12 10 9 10 9 8 8 9 10 9 8 9 9
3 2 3 2 1 3 3 3 3 1 3 3 3 1 5 5 1 1 4 4 5 10 8 4 6 10 9 8 8 7 7 7 6 5 4 4 7 10 12 14 14 15 15 15 16 18 21 19 15 12 14 20 20 18 20 21 19 18 18 16 14 13 14 14 12 12 12 15 17 17 16 14 12 12 12 13 13 13 13 11 11 11 12 13 14 12 11 11 11 10 10 10 11 11 10 11 11
Wind_Direction
287 329 330 323 305 316 302 223 106 273 175 263 255 246 250 238 242 273 291 322 60 359 26 51 56 73 85 90 91 73 47 28 58 118 141 151 125 133 140 140 143 146 147 150 148 144 142 142 142 141 141 141 141 141 142 143 144 143 141 140 138 137 136 135 133 130 133 131 126 124 126 128 125 127 129 130 128 125 123 116 112 110 107 106 100 96 95 93 92 94 92 89 88 87 88 88 92
273 319 309 299 285 290 280 182 122 250 175 279 259 233 250 258 266 273 326 38 57 29 42 60 66 83 93 93 89 73 54 41 64 84 107 123 117 124 137 143 146 147 149 151 147 144 143 142 142 142 142 142 142 142 143 145 145 141 139 137 135 134 135 135 133 131 133 130 126 126 129 131 129 133 135 135 134 132 128 122 119 115 110 105 99 97 97 96 95 95 93 92 91 91 93 91 92
269 290 297 290 266 235 287 297 201 227 185 243 258 245 256 261 256 237 84 77 48 28 51 65 60 74 85 76 67 73 83 65 80 88 112 124 116 124 137 144 147 148 150 150 147 145 143 143 143 143 143 142 142 143 145 144 141 137 136 135 135 135 136 136 133 132 132 129 128 129 132 134 134 136 139 139 139 139 134 129 127 119 110 105 102 101 99 99 98 98 97 94 92 93 96 97 99
278 276 282 295 271 211 311 267 194 202 221 242 258 268 276 258 150 113 90 87 67 35 48 73 57 39 74 80 76 77 88 86 99 106 115 123 126 137 141 145 146 147 149 149 148 145 144 144 144 144 143 142 142 143 143 138 134 131 132 134 135 135 136 136 134 132 130 128 128 131 134 135 135 136 140 142 142 140 137 137 133 125 112 106 107 107 103 101 102 103 103 97 95 97 100 103 106
285 268 262 273 274 201 207 237 217 193 225 246 257 278 308 330 66 101 107 95 95 70 62 96 100 60 67 70 73 81 80 100 108 107 107 121 132 141 144 145 145 145 148 150 149 146 144 145 145 145 142 142 141 140 137 132 130 128 129 131 133 134 135 135 133 131 128 127 128 132 136 135 135 136 141 142 142 137 136 137 134 131 115 110 120 120 113 109 109 111 110 101 101 101 103 107 112
294 288 263 243 251 299 341 261 262 243 240 242 258 271 288 358 8 37 82 90 83 90 89 93 109 96 77 57 53 33 13 109 101 103 115 126 137 143 144 144 143 146 149 150 149 146 145 146 146 144 142 141 138 135 131 128 128 128 129 129 131 132 132 132 130 128 125 125 126 129 133 134 135 136 139 139 139 135 133 136 135 133 124 130 139 133 125 122 125 131 125 109 106 97 92 101 108
279 299 277 210 269 288 194 252 256 263 257 249 254 265 246 190 139 43 35 42 26 41 91 97 108 97 78 87 76 27 38 76 91 107 127 133 139 141 144 143 142 145 149 151 149 145 145 147 145 142 141 139 135 132 127 126 128 128 128 128 131 131 130 129 126 125 124 125 125 124 127 131 134 134 135 133 133 132 131 135 136 134 139 151 149 142 141 139 143 150 141 110 95 83 85 84 90
260 267 285 130 290 259 207 254 252 251 262 263 261 264 251 210 154 88 41 45 19 10 105 109 102 87 62 82 103 41 49 77 98 109 126 132 137 142 146 142 140 143 149 150 148 146 146 147 145 142 140 137 135 130 125 126 128 127 126 127 129 130 129 128 126 126 126 126 125 124 126 129 133 135 135 133 132 132 130 130 129 138 151 160 153 152 154 150 151 158 161 106 72 79 84 73 75
245 227 280 260 239 256 246 250 249 247 253 262 266 265 255 223 79 88 29 347 253 1 106 121 102 95 108 91 97 68 52 78 104 110 120 125 119 130 142 138 138 141 146 149 148 147 147 148 145 143 140 137 136 130 126 125 126 126 126 127 129 129 128 128 127 127 127 127 128 128 129 132 135 135 135 133 132 132 129 126 128 139 152 160 160 158 156 150 152 158 169 111 76 83 81 79 82
219 206 226 250 240 268 264 256 251 250 249 255 262 259 240 152 127 111 75 339 332 34 82 96 95 113 125 103 97 83 82 108 116 113 119 127 119 113 125 129 138 142 146 149 149 148 147 148 146 145 141 138 138 132 128 127 128 128 128 128 128 129 128 127 127 127 129 130 132 134 135 136 137 135 135 135 135 136 133 131 131 136 145 155 159 158 156 148 153 161 151 114 98 97 99 99 95
245 226 186 246 271 263 255 260 258 260 257 259 263 256 229 140 129 99 80 23 336 70 110 95 95 118 112 102 106 121 129 128 127 122 123 130 133 134 125 124 143 146 147 149 149 150 148 147 147 146 143 141 141 135 132 131 132 131 130 130 128 129 128 127 128 128 130 133 137 137 137 136 137 136 135 138 139 139 138 135 130 131 137 148 156 160 162 154 157 161 127 112 106 109 116 108 96
251 262 167 230 236 238 247 258 265 272 275 275 277 268 177 110 89 95 94 92 347 87 130 114 129 127 104 112 125 130 130 130 133 131 130 130 132 138 132 133 150 149 148 151 150 150 148 148 148 147 146 144 141 138 136 134 135 134 133 132 130 129 128 128 126 127 131 136 140 138 137 138 140 140 140 141 138 136 134 134 133 133 136 146 160 162 163 159 157 155 121 117 116 120 123 108 92
218 256 213 239 233 237 255 261 269 280 289 287 306 333 71 100 79 69 68 31 18 33 57 102 126 102 90 108 88 130 136 140 137 130 131 130 131 134 133 138 149 148 149 152 150 150 150 150 149 149 149 146 143 140 139 139 138 137 137 135 132 131 128 126 124 129 137 143 144 140 141 142 143 144 145 142 138 135 132 136 138 138 139 144 155 160 164 160 156 156 130 125 129 131 129 112 97
206 237 210 252 268 259 268 269 279 289 283 261 260 21 31 84 81 62 56 14 18 80 109 105 110 86 87 109 82 163 159 149 138 130 131 129 131 130 131 138 144 147 150 152 151 150 151 152 151 151 151 149 147 144 141 142 141 140 140 136 133 131 127 125 129 139 148 150 150 148 148 150 150 151 149 147 146 143 138 141 142 141 140 142 149 160 169 166 165 168 148 137 143 144 137 128 112
206 237 219 255 279 278 278 266 279 285 273 260 256 4 49 75 83 80 74 13 56 123 124 117 131 102 138 168 161 183 167 154 138 131 133 131 136 133 134 140 141 145 149 151 149 149 151 153 154 153 155 155 152 150 146 145 145 143 139 136 133 130 129 132 140 153 159 160 160 156 158 162 162 161 157 156 158 156 151 148 148 147 144 146 151 160 169 173 174 169 158 149 153 154 142 141 127
212 230 235 263 271 279 275 267 281 279 284 307 339 354 36 46 35 68 114 94 79 119 107 124 159 135 163 170 147 153 158 156 140 132 133 133 141 139 139 141 139 143 148 149 147 148 152 155 156 158 161 160 158 155 151 149 148 146 141 137 135 133 137 144 152 162 164 164 165 163 168 171 170 169 166 167 169 169 165 158 156 154 151 153 155 162 171 178 179 173 165 157 163 160 147 150 141
253 234 241 266 264 267 262 260 266 243 275 359 8 16 38 31 17 11 93 97 77 96 86 84 103 134 157 142 133 142 150 151 141 136 136 137 141 137 138 139 137 140 144 147 147 148 154 158 160 164 163 162 161 160 157 156 153 151 147 143 141 141 148 157 163 167 166 166 170 172 174 173 172 172 170 175 177 178 176 172 167 160 157 160 160 166 174 180 183 187 183 180 178 168 158 162 156
253 212 213 242 242 250 255 253 265 277 340 23 19 36 62 33 18 4 30 79 116 93 87 85 84 99 117 122 131 138 145 145 140 137 136 137 138 132 131 133 138 142 143 146 150 152 156 160 163 165 161 161 165 165 165 162 158 155 153 151 149 151 160 169 172 172 170 174 178 176 176 176 173 171 177 184 186 187 186 179 172 167 166 166 167 172 179 184 189 196 198 199 190 182 183 179 182
232 207 203 224 231 245 259 260 277 319 329 7 28 29 59 44 21 13 359 342 26 87 92 91 94 93 104 121 130 136 140 141 140 139 138 141 145 143 133 132 139 145 146 148 151 153 157 161 164 164 161 164 168 168 169 167 163 161 160 159 158 163 171 176 178 178 176 179 183 180 179 181 173 171 182 188 193 196 193 186 176 174 177 171 171 177 185 189 195 200 203 202 199 201 202 197 206
218 214 232 242 245 254 262 269 288 318 330 13 40 20 22 35 31 85 20 340 348 100 125 111 114 122 127 132 134 137 137 138 143 144 146 148 151 152 143 142 144 146 149 151 150 153 159 162 165 166 165 168 169 169 169 169 167 166 166 166 169 174 178 180 184 184 182 182 187 188 183 182 178 178 187 190 198 203 197 189 180 180 186 182 181 186 191 195 203 207 203 199 203 213 220 225 230
205 198 223 245 255 266 269 278 308 347 17 22 22 11 10 5 359 116 75 337 317 118 144 144 144 143 144 145 141 141 137 136 138 142 151 151 157 158 154 151 148 147 149 151 149 153 160 162 164 166 168 170 170 172 170 167 168 167 168 172 178 183 182 184 192 193 190 190 189 190 186 185 185 187 195 198 203 204 198 192 188 189 194 198 203 203 197 196 215 232 221 203 207 224 236 239 241
222 219 219 236 246 259 273 283 316 26 34 20 1 350 1 337 320 186 177 216 251 190 153 149 150 149 148 147 141 139 135 130 127 135 128 73 91 145 151 152 148 148 149 150 149 153 161 163 165 165 168 172 172 174 171 169 171 169 171 176 183 191 193 193 201 202 194 196 196 194 192 191 193 196 203 206 205 204 201 197 195 198 201 204 210 217 218 228 254 272 256 219 208 217 235 238 241
223 250 230 236 245 251 274 287 299 12 19 358 355 326 330 319 297 260 279 186 118 127 134 130 137 141 139 139 138 136 133 135 141 149 124 87 56 0 314 162 151 152 152 151 149 151 160 163 166 166 168 171 168 168 166 168 172 172 174 181 188 194 200 202 204 206 200 198 206 206 200 198 201 199 202 206 202 201 198 194 195 200 201 204 205 199 215 264 278 275 295 300 271 238 268 281 279
222 244 237 241 251 261 271 280 294 344 23 339 358 342 320 297 296 325 16 91 102 108 112 114 117 108 113 123 126 125 124 136 144 138 125 126 131 118 283 223 160 153 154 154 151 150 158 161 164 165 166 165 160 159 158 163 168 170 175 182 190 192 198 206 202 205 206 202 205 203 196 199 207 206 207 208 201 197 193 192 198 200 196 203 209 201 204 230 243 226 210 240 259 259 274 286 290
231 231 234 242 258 275 281 280 289 305 334 334 318 306 280 273 286 321 73 106 109 108 108 111 106 94 93 98 108 113 113 122 117 113 125 135 137 137 206 239 182 153 154 158 155 152 157 160 161 162 160 158 157 159 158 163 170 173 179 181 186 188 192 201 198 200 203 201 204 201 196 202 212 207 204 205 198 196 195 198 203 202 200 204 212 212 212 222 231 222 201 209 231 242 255 269 278
232 230 229 235 252 274 281 279 271 277 275 203 245 251 257 266 262 275 131 120 120 115 111 112 112 113 111 106 112 115 116 118 118 131 136 137 137 135 190 237 193 153 154 159 158 155 158 159 158 158 156 154 155 161 164 166 172 172 175 180 183 183 184 188 189 191 190 193 202 206 207 206 206 199 198 204 202 200 197 202 209 208 209 214 219 220 220 227 233 229 208 215 225 228 233 227 232
265 255 259 258 254 258 265 271 258 261 253 199 206 244 254 246 227 257 132 128 129 119 116 116 118 123 121 114 112 113 117 122 136 143 127 124 138 132 192 246 180 147 156 156 159 158 159 159 157 158 155 154 156 161 164 161 164 162 167 181 182 179 184 185 183 186 183 185 195 202 207 203 199 195 196 206 211 215 208 206 212 214 218 220 220 219 219 224 228 226 211 218 225 228 230 221 230
296 296 295 282 283 274 273 283 277 273 253 189 188 240 254 237 212 184 136 136 130 121 121 121 119 118 117 112 111 112 114 123 134 137 123 134 146 128 174 257 164 142 160 157 157 158 160 158 153 155 153 155 158 156 157 157 161 162 165 173 171 175 184 186 184 185 181 181 192 200 200 199 200 193 189 205 225 234 219 204 206 210 216 212 208 214 220 220 221 225 215 220 232 232 229 221 245
279 286 302 291 295 279 270 273 269 271 257 190 191 247 263 255 208 141 136 138 126 123 124 120 117 116 116 111 112 115 114 123 126 123 126 144 154 132 167 258 174 142 154 144 141 147 154 153 145 150 152 155 155 149 148 151 159 163 158 154 157 168 174 179 181 174 175 184 197 204 198 189 193 190 182 186 205 237 214 197 200 202 209 207 203 210 217 218 218 221 217 227 242 233 230 233 265
256 266 280 281 297 269 248 238 242 242 237 202 180 244 263 266 193 142 144 141 130 129 126 117 114 117 119 118 116 119 118 123 126 133 139 143 154 136 159 255 190 143 138 128 128 131 138 141 136 139 147 151 150 149 154 155 153 150 148 143 145 156 159 173 177 165 171 184 197 205 200 185 186 195 184 173 186 214 207 201 209 206 208 214 216 217 217 216 210 212 211 218 239 226 243 286 281
280 281 272 243 258 263 238 217 223 223 226 187 156 214 254 269 208 160 155 141 133 135 131 123 122 124 128 131 127 131 123 120 129 139 141 144 154 134 162 252 196 143 131 124 126 127 131 136 132 132 139 141 136 135 143 156 152 138 139 138 131 138 145 156 159 158 170 180 181 176 178 186 186 188 186 183 199 220 214 212 233 226 216 221 234 238 230 224 213 210 204 198 225 226 247 283 274
246 241 272 233 208 258 248 217 210 211 220 159 148 222 250 262 234 171 157 142 134 136 137 129 128 127 131 136 134 141 122 118 138 148 147 155 160 137 177 253 186 141 136 127 128 129 131 136 136 136 138 137 133 125 121 135 142 130 130 129 119 123 125 128 134 138 149 159 152 133 138 165 178 171 172 183 200 225 227 228 243 242 233 227 238 247 227 223 217 208 200 196 218 225 249 272 260
242 200 246 236 214 251 253 219 197 198 199 140 154 215 244 266 242 160 158 149 135 136 138 131 129 129 133 137 141 144 134 134 147 166 165 162 158 140 185 254 177 144 142 134 133 132 133 137 139 141 143 142 140 133 123 127 133 127 130 133 129 133 125 114 118 121 124 131 125 111 103 90 82 101 127 165 194 221 238 239 247 258 255 242 248 255 225 221 216 203 201 198 207 222 247 254 208
284 238 239 253 242 233 217 213 191 187 171 143 174 209 236 278 283 153 154 142 133 133 133 131 131 132 137 140 151 150 147 156 151 185 180 162 153 144 177 233 172 147 147 141 140 137 137 140 140 141 144 143 138 136 131 128 129 129 133 135 131 133 135 124 115 112 110 110 105 102 101 91 74 66 83 107 147 164 113 342 278 277 273 266 261 249 239 238 233 221 205 192 205 225 240 231 202
304 286 259 280 275 230 188 197 203 184 159 148 182 224 251 269 266 172 145 138 136 133 130 132 137 139 143 144 158 160 156 162 155 189 188 160 148 150 178 200 161 148 150 145 145 143 141 142 142 141 140 139 135 134 132 130 130 132 138 134 121 114 116 125 123 116 108 100 98 99 105 109 101 82 81 91 98 107 93 57 42 38 28 328 260 250 257 257 245 226 200 185 203 227 234 232 226
320 309 295 298 295 264 169 159 181 162 145 158 176 218 246 235 230 218 138 136 139 141 134 132 139 142 146 149 156 162 164 166 166 186 185 153 145 160 183 176 151 148 151 149 148 147 146 145 145 145 142 141 140 139 136 136 135 135 140 134 125 118 114 121 124 121 111 101 102 101 102 115 117 105 95 94 93 99 97 78 58 43 43 50 43 275 271 263 256 238 197 183 185 216 233 236 235
333 327 322 321 322 319 55 114 138 94 108 179 210 246 253 234 241 246 160 138 138 144 138 133 144 151 153 155 159 163 171 171 172 185 182 157 156 175 179 158 148 152 153 153 152 151 153 151 150 150 150 150 148 145 142 143 144 141 139 130 129 131 123 120 119 118 114 106 108 104 95 101 120 130 121 108 100 101 110 100 78 54 46 49 70 99 198 251 262 277 232 199 186 195 224 234 228
356 348 331 327 329 318 1 77 81 61 76 313 335 326 291 298 306 288 169 130 136 147 145 146 157 165 164 160 161 166 171 165 165 174 169 160 162 169 165 153 152 154 153 156 157 158 161 158 157 157 156 155 148 146 146 146 149 147 143 137 136 136 132 127 117 113 115 107 105 107 101 93 101 122 122 111 104 104 116 113 91 74 65 66 87 107 117 154 229 246 242 207 195 205 221 219 203
8 0 340 314 309 324 344 21 57 63 64 321 346 354 316 314 329 313 152 122 140 155 156 158 161 166 170 164 162 165 164 157 155 155 155 156 152 147 151 153 154 157 158 159 159 163 168 167 166 163 161 157 150 152 154 152 154 154 150 147 142 135 132 131 116 108 111 106 106 107 104 99 101 113 112 111 110 107 111 108 101 98 78 72 98 104 104 101 129 188 197 194 186 193 211 211 200
331 306 321 293 291 348 347 326 11 59 80 48 11 355 315 318 341 324 303 117 136 152 154 161 165 167 172 168 162 161 159 156 152 151 150 148 142 140 151 153 152 157 161 160 161 168 175 176 173 169 164 160 158 158 159 157 156 152 144 140 138 131 126 123 117 113 114 114 112 105 98 96 102 113 116 115 113 111 111 103 105 110 87 76 104 99 98 95 93 114 147 180 183 176 178 189 206
302 236 216 264 285 316 337 290 356 26 12 23 43 8 317 316 335 302 306 80 127 142 141 155 175 175 165 156 158 157 153 154 152 152 151 143 144 152 161 159 154 161 164 163 166 172 179 183 179 174 168 164 163 157 153 152 147 141 135 131 130 127 125 124 125 124 120 116 114 109 106 102 103 108 112 115 113 111 109 97 102 111 96 90 96 93 94 88 78 76 92 129 167 169 159 158 181
303 256 221 232 263 289 284 240 49 41 347 307 97 54 301 301 304 273 291 37 161 164 144 164 185 167 147 144 151 153 144 149 153 154 154 147 154 163 167 167 164 169 172 169 172 175 180 185 184 180 174 169 168 161 156 153 147 144 141 136 133 132 134 136 137 134 127 121 119 118 116 112 110 108 109 116 117 109 105 97 98 111 103 96 95 95 97 89 80 76 80 96 113 139 149 145 142
289 266 273 271 267 289 296 318 58 91 274 255 142 126 267 299 304 275 274 266 226 193 155 167 158 121 136 145 146 149 145 149 157 158 156 153 162 167 171 174 173 178 181 176 175 177 180 184 186 185 180 174 172 168 167 163 155 152 151 146 141 142 144 145 142 137 131 130 128 124 118 114 112 108 109 114 114 114 111 99 97 114 111 100 98 97 98 91 89 91 89 90 87 98 131 137 131
240 240 278 323 320 321 325 338 322 199 223 279 180 145 192 286 286 282 287 282 255 194 152 154 139 124 138 145 146 157 160 159 162 164 161 160 166 169 175 180 180 184 186 182 178 179 181 184 187 189 183 178 174 172 173 172 164 159 155 148 145 149 148 145 143 139 135 133 129 125 120 115 112 110 110 114 118 121 119 99 93 109 110 97 91 95 100 99 99 100 98 97 92 91 107 124 127
233 221 213 324 1 344 338 343 306 231 121 315 299 163 171 271 267 283 301 295 271 139 132 132 127 129 148 155 159 164 160 152 154 159 163 163 169 173 176 181 186 188 187 184 182 181 183 184 186 189 185 181 179 177 177 175 169 162 154 149 149 152 148 144 143 141 138 134 130 130 128 125 123 121 116 115 117 121 126 116 99 96 94 86 82 84 94 100 102 103 101 100 99 95 94 101 106
210 206 132 51 25 323 318 315 307 9 89 261 280 239 184 271 269 280 313 296 183 121 102 117 97 65 146 158 153 142 141 146 154 162 168 169 173 176 176 177 184 188 186 185 184 183 185 185 185 188 188 185 183 180 178 174 168 159 156 156 154 150 147 145 144 142 141 138 136 136 134 131 130 126 122 117 113 112 118 123 110 97 89 88 81 77 83 84 85 94 98 96 100 102 98 98 99
150 88 25 25 343 285 272 256 259 47 335 250 253 274 268 275 281 275 278 262 182 141 61 65 79 54 107 145 149 146 153 161 163 164 168 168 169 172 173 176 182 184 183 185 186 186 186 185 185 188 189 188 186 183 178 174 166 160 163 164 157 151 151 151 148 146 145 144 142 141 138 136 134 132 131 127 125 121 113 110 110 105 99 96 86 77 81 82 81 88 94 97 98 103 107 105 100
74 69 39 21 336 324 320 317 49 106 264 265 322 2 331 264 268 260 254 236 131 126 105 95 97 76 85 125 145 148 127 114 133 143 146 145 151 166 174 180 185 184 179 179 185 188 186 186 188 188 189 189 187 184 179 175 169 166 169 167 160 157 157 157 155 153 152 150 147 145 144 142 140 139 140 137 135 131 122 116 114 113 111 108 103 95 89 85 88 93 95 97 97 98 108 114 108
97 106 91 66 324 356 8 339 16 209 244 259 319 17 25 249 247 276 298 274 145 121 118 112 106 97 85 92 99 100 92 90 98 102 100 101 118 169 182 185 187 185 178 176 184 188 186 187 188 190 190 189 189 185 180 178 174 169 171 168 162 161 163 164 161 157 157 155 151 151 151 149 147 147 152 151 143 136 131 128 120 119 127 123 119 117 102 80 81 90 91 91 90 90 101 115 115
147 166 155 153 166 54 349 286 312 271 278 279 285 37 23 294 272 299 323 307 139 94 101 111 103 101 94 84 87 89 88 87 85 86 86 79 84 109 175 201 197 185 180 183 186 188 189 191 192 199 201 189 187 186 181 181 177 172 172 171 165 164 166 169 165 161 162 158 155 158 160 160 157 156 161 160 154 146 134 135 139 127 129 132 130 130 122 103 94 87 87 91 90 85 92 107 118
213 202 154 147 156 144 183 215 162 213 275 301 317 132 162 285 267 270 304 341 66 74 87 96 85 81 84 83 87 89 85 85 86 86 82 69 67 62 51 192 193 182 184 188 188 187 194 195 192 220 243 196 190 189 183 181 180 174 175 174 169 167 169 171 168 165 166 162 160 166 169 170 167 162 164 165 162 159 145 148 170 169 140 136 133 137 137 134 136 112 91 97 98 92 86 89 105
280 322 68 144 175 153 155 183 177 178 231 314 287 213 185 197 258 269 263 64 73 76 71 70 69 72 82 86 86 90 91 93 91 87 85 70 63 61 56 89 157 170 177 180 181 192 205 201 191 204 225 204 183 180 175 178 182 180 181 177 171 170 169 170 169 169 171 169 165 170 177 180 176 169 168 170 166 167 166 170 184 197 176 148 135 140 141 138 146 156 120 114 107 97 86 76 88
295 347 9 217 170 133 122 219 216 133 104 278 237 237 328 255 271 275 212 129 101 102 84 73 73 75 82 84 81 84 83 84 82 82 90 75 63 69 69 82 126 158 175 182 190 207 213 208 198 192 193 80 89 158 167 174 183 187 187 179 173 172 169 168 171 171 174 177 172 171 178 184 183 179 176 176 174 171 177 185 193 204 202 178 150 148 151 154 170 195 169 140 125 108 103 88 87
70 308 267 292 36 91 102 116 333 54 126 263 229 202 185 130 271 298 278 146 120 112 103 97 90 82 83 83 84 84 78 76 73 66 70 69 63 67 68 71 87 120 164 193 207 216 216 219 216 194 177 129 141 171 175 172 178 186 188 182 176 174 171 169 173 176 175 178 180 176 175 179 184 186 185 183 181 177 182 191 198 205 207 203 180 164 171 184 189 198 205 180 157 147 156 156 129
156 234 264 6 62 12 41 120 179 166 196 276 268 220 125 135 228 300 327 56 76 72 88 101 97 92 92 89 86 84 78 72 64 59 55 58 66 68 67 65 67 75 91 134 179 195 196 203 201 185 174 159 139 163 173 174 175 167 171 182 184 182 181 178 179 184 182 180 181 178 176 178 181 186 190 191 189 185 188 194 199 207 212 217 214 189 189 202 200 198 207 203 188 186 178 167 171
282 259 293 57 133 162 201 169 168 165 181 253 306 343 356 251 249 310 10 63 75 55 48 82 101 99 93 91 88 84 84 80 70 66 55 56 76 81 78 71 67 67 67 73 87 87 94 146 162 161 168 170 155 157 169 177 184 169 160 175 189 188 187 186 187 190 188 185 182 178 177 181 183 186 191 195 198 198 198 200 202 209 215 220 224 213 202 211 217 214 218 214 204 205 195 183 193
6 31 16 341 1 80 60 333 1 115 135 188 74 18 287 267 276 322 0 94 108 87 52 52 96 97 87 88 91 90 94 96 96 98 84 69 80 88 90 84 77 74 68 66 68 65 68 100 134 144 159 164 158 159 169 178 185 179 168 173 189 194 191 188 186 182 182 185 185 181 176 177 184 194 200 201 204 207 209 209 207 212 221 225 227 227 216 216 224 227 229 230 224 221 212 205 212
140 131 144 167 131 85 69 344 322 73 126 159 134 157 264 258 243 343 9 32 102 111 103 94 100 98 95 94 93 96 103 107 113 116 102 78 77 88 96 96 91 86 78 70 66 67 71 82 100 123 142 150 155 161 168 174 176 177 179 180 185 194 196 192 185 175 174 182 187 187 185 185 186 192 200 206 212 216 214 210 209 217 226 230 232 234 228 221 225 229 230 235 237 233 222 217 222